Starlink 31300

operational
NORAD ID: 58878 Int'l Des: 2024-020 Owner: SPXS Country: US Constellation: starlink
LEOCIRCULAR

Starlink 31300について

説明を読み込み中...

リアルタイム位置

3D地球を読み込み中...

次回通過

高度履歴

Altitude vs Time

uPlot chart will show altitude changes over time

軌道要素

1 58878U 24020C 25259.16616198 .00002402 00000-0 93192-4 0 9991
2 58878 53.1611 52.8629 0000654 69.7293 290.3778 15.30197411 91354
Epoch: Sep 16, 2025 • Age: 15 hours

現在のステータス

高度 480.6 km
速度 7.63 km/s
衛星直下点 49.84°N, 106.36°W
打ち上げ日 Jan 29, 2024
運用期間 1.6 years
タイプ internet

技術仕様

分類 Payload
質量 730.00 kg
乾燥質量 700.00 kg
総質量 730.00 kg
長さ 0.30 m
直径 4.10 m
スパン 29.00 m
形状 Box + pan
製造者 SPXS
バスタイプ Starlink V2M
フェーズステータス In Orbit
所有者/国 SPXS/US

大規模コンステレーション

Loading constellations...